Regional Weather Roundup
Issued by NWS

Home | Current Version | Previous Version | Text Only | Print | Product List | Glossary On
Versions: 1 2 3 4 5 6 7 8 9 10 11 12 13 14 15 16 17 18 19 20 21 22 23 24 25 26 27
000
ASUS45 KBOU 280307
RWRCO

WEATHER ROUNDUP FOR COLORADO
NATIONAL WEATHER SERVICE DENVER/BOULDER CO
900 PM MDT SAT AUG 27 2016

NOTE: "FAIR" INDICATES FEW OR NO CLOUDS BELOW 12000 FEET WITH NO
SIGNIFICANT WEATHER AND/OR OBSTRUCTIONS TO VISIBILITY.

COZ001>005-013-030-031-280400-
...NORTHWEST COLORADO...

CITY           SKY/WX    TMP DP  RH WIND       PRES   REMARKS
CRAIG          FAIR      62  38  40 SW3       30.18R
HAYDEN         FAIR      64  34  32 CALM      30.20R
MEEKER         FAIR      59  43  55 NE5       30.20R
MOUNT WERNER   NOT AVBL
STEAMBOAT SPGS FAIR      59  32  36 CALM      30.23R
WALDEN         FAIR      54  27  35 W7        30.32R
$$

COZ006>008-011-280400-
...WEST CENTRAL VALLEYS...

CITY           SKY/WX    TMP DP  RH WIND       PRES   REMARKS
GRAND JUNCTION FAIR      69  45  41 SE13      30.13R
MONTROSE       FAIR      64  45  49 SE12      30.21S
EAGLE          FAIR      64  41  42 SW8       30.24R
RIFLE          FAIR      69  47  45 NE6       30.17R
DELTA          FAIR      67  48  50 NE3       30.19
NUCLA          FAIR     N/A N/A N/A SE8       30.26S
$$

COZ017>023-064>068-280400-
...SOUTHWEST COLORADO...

CITY           SKY/WX    TMP DP  RH WIND       PRES   REMARKS
DURANGO        FAIR      56  48  74 CALM      30.29R
CORTEZ         CLOUDY    62  50  64 W3        30.22R
PAGOSA SPRINGS FAIR      55  46  71 N5        30.35F
TELLURIDE      MOCLDY    47  45  91 CALM      30.43R
WOLF CREEK PAS FOG       36  36 100 N3        30.59S VSB 1/2
$$

COZ009-010-012-014-032>034-037-058>063-280400-
...CENTRAL COLORADO...

CITY           SKY/WX    TMP DP  RH WIND       PRES   REMARKS
ASPEN          FAIR      57  41  55 SE9       30.30R
BUENA VISTA    FAIR      57  42  56 SW6       30.32S
COPPER MTN     MOCLDY    46  32  57 CALM      30.57R
BERTHOUD PASS  FAIR      41  28  60 NW8       30.60R
COTTONWOOD PAS FAIR      54  37  54 W9        30.43S
GUNNISON       MOCLDY    54  46  76 CALM      30.37R
KREMMLING      FAIR      59  34  38 CALM      30.27R
LEADVILLE      FAIR      47  35  63 E5        30.43R
MONARCH PASS   FAIR      41  32  70 CALM      30.67R
SALIDA         FAIR      59  43  54 W8        30.37R
SUNLIGHT       FAIR      46  37  71 N3        30.52R
WILKERSON PASS FAIR      46  32  57 W6        30.55S
$$

COZ069>075-280400-
...SAN LUIS VALLEY/SANGRE DE CRISTO MOUNTAINS...

CITY           SKY/WX    TMP DP  RH WIND       PRES   REMARKS
ALAMOSA        FAIR      52  45  77 W12       30.32R
LA VETA PASS   FAIR      46  36  66 S12G18    30.45R
SAGUACHE       MOCLDY    55  43  62 CALM      30.37R
$$

COZ035-036-038>040-280400-
...NORTHERN COLORADO FRONT RANGE...

CITY           SKY/WX    TMP DP  RH WIND       PRES   REMARKS
DENVER INTL AP MOCLDY    65  40  39 S9        30.10R
DMNS CITY PARK   N/A     73  44  34 S9        30.10R
AURORA         PTCLDY    65  47  50 SE9       30.12R
FRONT RANGE AP MOCLDY    72  45  37 S12G21    30.11R
ERIE MUNI ARPT NOT AVBL
BOULDER MUN AP FAIR      70  37  30 N7        30.09R
CENTENNIAL     FAIR      69  44  40 S13       30.13R
BROOMFIELD     MOCLDY    68  37  32 W6        30.12R
FORT COLLINS   FAIR      70  39  32 S5        30.07R
LONGMONT       FAIR      72  42  33 NW6       30.10R
$$

COZ041-046-047-076>085-087-088-280400-
...PIKES PEAK/PALMER DIVIDE AND SOUTHERN FOOTHILLS...

CITY           SKY/WX    TMP DP  RH WIND       PRES   REMARKS
COLO. SPRINGS  FAIR      67  44  43 W6        30.20R
A. F. ACADEMY  FAIR      65  46  51 SE7       30.21R
SCHRIEVER AFB  NOT AVBL
ELLICOTT       NOT AVBL
FALCON         FAIR      60  45  57 NE5       30.24R
FORT CARSON    FAIR      68  46  45 NW2       30.16R
LIMON          FAIR      58  49  72 CALM      30.15R
MONUMENT HILL  FAIR      59  43  55 S9        30.25R
TRINIDAD       FAIR      67  44  43 NW7       30.13R
$$

COZ042>045-048>051-090-091-280400-
...NORTHEAST COLORADO...

CITY           SKY/WX    TMP DP  RH WIND       PRES   REMARKS
GREELEY ARPT   FAIR      64  46  52 NE5       30.06R
AKRON          FAIR      64  44  48 SE10      30.09R
BURLINGTON     FAIR      67  56  67 S17       30.08R
WRAY           FAIR      70  59  68 E6        30.05R
STERLING       FAIR      68  52  56 S5        30.02R
HOLYOKE        FAIR      66  59  77 SE6       30.05R
FORT MORGAN    FAIR      69  43  38 SE8       30.07R
$$

COZ086-089-092>099-280400-
...SOUTHEAST COLORADO...

CITY           SKY/WX    TMP DP  RH WIND       PRES   REMARKS
PUEBLO         MOCLDY    78  47  33 E12       30.06R
LA JUNTA       FAIR      75  51  43 E13       30.04R
LAMAR          FAIR      73  57  57 E9        30.03R
SPRINGFIELD      N/A     72  57  59 CALM      30.11R
$$




USA.gov is the U.S. government's official web portal to all federal, state and local government web resources and services.